Flag for Austria Weather past 2 weeks in Mattersburg, Burgenland, Austria

Now
64 °F

Fog.


Feels Like: 64 °F
Forecast: 58 / 82 °F
Wind: 2 mph from Southwest

Location: Eisenstadt

Current Time: Jul 25, 2014 at 11:28:33 AM

Latest Report: Jul 25, 2014 at 10:00 AM


Visibility: N/A

Pressure: 29.94 "Hg

Humidity: 92%

Dew point: 62 °F

Location of MattersburgLocation

Historic Weather in Mattersburg — Graph

°F

Mattersburg temperature yesterday

Maximum temperature yesterday: 79 °F (at 4:00 PM)
Minimum temperature yesterday: 62 °F (at 6:00 AM)
Average temperature yesterday: 70 °F

Past Weeks' High & Low Weather Summary

 TemperatureHumidityPressure
High91 °F (Jul 20, 4:00 PM)95% (Jul 14, 3:00 AM)30.09 "Hg (Jul 14, 3:00 AM)
Low56 °F (Jul 11, 7:00 AM)32% (Jul 17, 5:00 PM)29.65 "Hg (Jul 21, 6:00 PM)
Average72 °F66%29.88 "Hg
* Reported Jul 10 10:00 AM — Jul 25 10:00 AM, Mattersburg, Weather by CustomWeather, © 2014

Note: Actual official high and low records may vary slightly from our data, if they occured in-between our weather recording intervals... More about our weather records

Advertising

Mattersburg weather history for previous 24 hours

 ConditionsComfort  
Time TempWeatherWind HumidityBarometerVisibility
10:00 AM
Jul 25
64 °FFog.2 mph92%29.94 "HgN/A
9:00 AM66 °FSprinkles. Cloudy.1 mph84%29.92 "HgN/A
8:00 AM65 °FLight rain. Overcast.1 mph84%29.91 "Hg7 mi
7:00 AM64 °FOvercast.1 mph85%29.90 "Hg9 mi
6:00 AM65 °FOvercast.1 mph80%29.89 "Hg9 mi
5:00 AM66 °FOvercast.2 mph77%29.87 "Hg9 mi
4:00 AM65 °FMild.3 mph81%29.87 "HgN/A
3:00 AM63 °FMild.2 mph85%29.86 "HgN/A
2:00 AM63 °FPassing clouds.5 mph86%29.88 "Hg9 mi
1:00 AM63 °FMild.5 mph87%29.88 "HgN/A
12:00 AM64 °FMild.5 mph84%29.87 "HgN/A
11:00 PM
Jul 24
65 °FPassing clouds.5 mph82%29.87 "Hg12 mi
10:00 PM66 °FMild.3 mph82%29.86 "HgN/A
9:00 PM68 °FMild.2 mph78%29.84 "HgN/A
8:00 PM73 °FPartly sunny.2 mph68%29.82 "Hg12 mi
7:00 PM77 °FScattered clouds.1 mph51%29.81 "Hg12 mi
6:00 PM78 °FWarm.2 mph48%29.80 "HgN/A
5:00 PM79 °FScattered clouds.3 mph47%29.80 "Hg12 mi
4:00 PM79 °FWarm.3 mph47%29.81 "HgN/A
3:00 PM78 °FWarm.2 mph49%29.81 "HgN/A
2:00 PM77 °FWarm.3 mph51%29.82 "HgN/A
1:00 PM76 °FMild.3 mph54%29.83 "HgN/A
12:00 PM75 °FMild.2 mph55%29.83 "HgN/A
11:00 AM72 °FScattered clouds.3 mph60%29.84 "Hg12 mi
Weather by CustomWeather, © 2014

See weather overviewHow to use our weather pages